Regional Weather Roundup
Issued by NWS State College, PA

Home | Current Version | Previous Version | Graphics & Text | Print | Product List | Glossary Off
Versions: 1 2 3 4 5 6 7 8 9 10 11 12 13 14 15 16 17 18 19 20 21 22 23 24 25 26 27 28 29 30 31 32 33 34 35 36 37 38 39 40 41 42 43 44 45 46 47 48 49 50

000
ASUS41 KCTP 201303
RWRCTP

REGIONAL WEATHER ROUNDUP
NATIONAL WEATHER SERVICE STATE COLLEGE PA
900 AM EDT SAT SEP 20 2014

Note: "fair" indicates few or no clouds below 12,000 feet with no
significant weather and/or obstructions to visibility.

* = STATION THAT DOES NOT REPORT PRECIPITATION /E.G. RAIN...SNOW...ETC/
    THUNDER OR FOG.

PAZ002>004-007>009-013>016-020>023-029>032-201400-
WESTERN PENNSYLVANIA

CITY           SKY/WX    TMP DP  RH WIND       PRES   REMARKS
ERIE           SUNNY     65  56  72 S17G24    30.07F
MEADVILLE      PTSUNNY   61  55  81 S10G18    30.12F
FRANKLIN*      MOSUNNY   61  54  77 S8        30.16S
NEW CASTLE     NOT AVBL
BEAVER COUNTY  MOSUNNY   61  55  82 S6        30.15
BUTLER*        MOSUNNY   63  55  77 S8        30.17S
PITTSBURGH INT PTSUNNY   62  56  80 S6        30.15S
PITTSBURGH     SUNNY     63  54  72 S9        30.15S
INDIANA*       CLOUDY    64  57  77 S6G14     30.22S
LATROBE        MOSUNNY   66  57  72 S12       30.18R
WASHINGTON CO* SUNNY     63  55  77 S6        30.17S
$$

PAZ004>006-010>012-017>019-024>028-033>037-041-042-045-046-049>053-201400-
CENTRAL PENNSYLVANIA

CITY           SKY/WX    TMP DP  RH WIND       PRES   REMARKS
BRADFORD       CLOUDY    60  54  80 S9G20     30.17S
DUBOIS         PTSUNNY   60  55  83 SE9       30.17F
CLEARFIELD     CLOUDY    61  58  90 CALM      30.20F
JOHNSTOWN      PTSUNNY   60  54  80 S10       30.22S
ALTOONA        PTSUNNY   63  58  83 S10       30.23S
STATE COLLEGE  CLOUDY    63  57  82 S10       30.22S
WILLIAMSPORT   CLOUDY    64  56  75 S15G23    30.21R
SELINSGROVE    CLOUDY    64  58  80 VRB7      30.25R
FT INDIANTOWN  CLOUDY    59  59  99 VRB1      30.28R
CAPITAL CITY   CLOUDY    61  57  87 E7        30.27R FOG
HARRISBURG     CLOUDY    62  57  83 E8        30.26R FOG
YORK           CLOUDY    64  60  87 VRB3      30.26S FOG
$$

PAZ038>040-043-044-047-048-054-055-060>062-067>071-201400-
EASTERN PENNSYLVANIA

CITY           SKY/WX    TMP DP  RH WIND       PRES   REMARKS
SCRANTON       CLOUDY    62  55  77 VRB6      30.25S
MOUNT POCONO   CLOUDY    55  53  93 S9        30.29S FOG
ALLENTOWN      CLOUDY    62  54  74 SE3       30.28F
QUAKERTOWN*    CLOUDY    63  57  82 SE7       30.29F
READING        PTSUNNY   64  56  75 VRB5      30.27S
LANCASTER      PTSUNNY   62  57  83 SE3       30.27R HAZE
COATESVILLE    PTSUNNY   59  57  94 E6        30.29S
POTTSTOWN      CLOUDY    59  55  87 CALM      30.30S
BLUE BELL      MOSUNNY   61  57  88 CALM      30.28S
DOYLESTOWN     PTSUNNY   60  55  83 CALM      30.29S
WILLOW GROVE   NOT AVBL
NORTH PHILA    SUNNY     64  54  69 E5        30.30F
PHILADELPHIA   MOSUNNY   64  58  80 E6        30.29R
$$


USA.gov is the U.S. government's official web portal to all federal, state and local government web resources and services.